Weather History for KCPW - March, 2014

Change the Weather History Date:

Saturday, March 22, 2014

  Actual Average (KALS) Record (KALS)
Temperature  
Mean Temperature 22 °F 35 °F  
Max Temperature 28 °F 52 °F 70 °F (2004)
Min Temperature 17 °F 19 °F -4 °F (1952)
Degree Days  
Heating Degree Days 42 30  
Month to date heating degree days 721  
Since 1 July heating degree days 7050  
Cooling Degree Days 0 0  
Month to date cooling degree days 0  
Year to date cooling degree days 0  
Moisture  
Dew Point 10 °F    
Average Humidity 60    
Maximum Humidity 100    
Minimum Humidity 36    
Precipitation  
Precipitation 0.00 in 0.02 in 0.57 in (1984)
Month to date precipitation 0.36  
Year to date precipitation 0.88  
Snow  
Snow 0.00 in 0.20 in 4.90 in (1984)
Month to date snowfall 3.5  
Since 1 July snowfall 21.6  
Snow Depth -    
Sea Level Pressure  
Sea Level Pressure 30.10 in    
Wind  
Wind Speed 19 mph (SW)    
Max Wind Speed 33 mph    
Max Gust Speed 46 mph    
Visibility 10 miles    
Events Snow    
T = Trace of Precipitation, MM = Missing Value Source: NWS Daily Summary

Daily Weather History Graph

Daily Weather History Graph

Search for Another Location

Airport or City:

Trip Planner

Search our weather history database for the weather conditions in past years. The results will help you decide how hot, cold, wet, or windy it might be!

Date:

Astronomy

Mar. 22, 2014 Rise Set
Actual Time 7:07 AM MDT 7:20 PM MDT
Civil Twilight 6:41 AM MDT 7:47 PM MDT
Nautical Twilight 6:11 AM MDT 8:17 PM MDT
Astronomical Twilight 5:40 AM MDT 8:48 PM MDT
Moon 12:37 AM MDT (3/22) 10:59 AM MDT (3/22)
Length of Visible Light 13h 05m
Length of Day
12h 13m
Waning Gibbous, 65% of the Moon is Illuminated
Mar 22
Waning Gibbous
Mar 23
Last Quarter
Mar 30
New
Apr 7
First Quarter
Apr 15
Full

Hourly Weather History & Observations

Time (MDT) Temp. Windchill Dew Point Humidity Pressure Visibility Wind Dir Wind Speed Gust Speed Precip Events Conditions
12:14 AM 23.0 °F 8.3 °F -0.4 °F 36% 30.11 in 10.0 mi SW 19.6 mph 28.8 mph N/A   Clear
12:35 AM 23.0 °F 7.6 °F -0.4 °F 36% 30.10 in 10.0 mi SW 21.9 mph 27.6 mph N/A   Clear
12:45 AM 23.0 °F 8.3 °F -0.4 °F 36% 30.10 in 10.0 mi WSW 19.6 mph - N/A   Clear
1:08 AM 23.0 °F 10.1 °F -0.4 °F 36% 30.10 in 10.0 mi SW 15.0 mph - N/A   Clear
1:33 AM 23.0 °F 9.2 °F 1.4 °F 39% 30.09 in 10.0 mi SW 17.3 mph 23.0 mph N/A   Clear
1:54 AM 21.2 °F 8.3 °F 1.4 °F 42% 30.09 in 10.0 mi SW 13.8 mph 23.0 mph N/A   Clear
2:06 AM 21.2 °F 6.8 °F 1.4 °F 42% 30.09 in 10.0 mi SW 17.3 mph 25.3 mph N/A   Clear
2:32 AM 21.2 °F 7.3 °F 1.4 °F 42% 30.08 in 10.0 mi SW 16.1 mph 23.0 mph N/A   Clear
2:55 AM 21.2 °F 8.3 °F 1.4 °F 42% 30.07 in 10.0 mi SW 13.8 mph 24.2 mph N/A   Clear
3:15 AM 21.2 °F 7.3 °F 1.4 °F 42% 30.07 in 10.0 mi SW 16.1 mph 25.3 mph N/A   Clear
3:34 AM 21.2 °F 6.4 °F 1.4 °F 42% 30.07 in 10.0 mi SW 18.4 mph 21.9 mph N/A   Clear
3:46 AM 21.2 °F 6.4 °F 1.4 °F 42% 30.06 in 10.0 mi SW 18.4 mph 26.5 mph N/A   Clear
4:17 AM 21.2 °F 6.4 °F 1.4 °F 42% 30.06 in 10.0 mi SW 18.4 mph 28.8 mph N/A   Clear
4:54 AM 19.4 °F 3.2 °F 3.2 °F 49% 30.06 in 10.0 mi SW 20.7 mph 29.9 mph N/A   Clear
5:15 AM 19.4 °F 2.5 °F 3.2 °F 49% 30.06 in 10.0 mi SW 23.0 mph 29.9 mph N/A   Mostly Cloudy
5:26 AM 19.4 °F 2.1 °F 3.2 °F 49% 30.06 in 10.0 mi SSW 24.2 mph 34.5 mph N/A   Mostly Cloudy
5:42 AM 17.6 °F -1.0 °F 3.2 °F 53% 30.06 in 10.0 mi SW 26.5 mph 32.2 mph N/A   Scattered Clouds
6:18 AM 17.6 °F -0.6 °F 5.0 °F 58% 30.06 in 10.0 mi SW 25.3 mph 32.2 mph N/A   Mostly Cloudy
6:44 AM 17.6 °F 1.7 °F 5.0 °F 58% 30.07 in 10.0 mi SW 18.4 mph 28.8 mph N/A   Scattered Clouds
7:09 AM 17.6 °F 0.1 °F 6.8 °F 63% 30.07 in 10.0 mi SW 23.0 mph 29.9 mph N/A   Mostly Cloudy
7:34 AM 17.6 °F 1.3 °F 6.8 °F 63% 30.08 in 10.0 mi SW 19.6 mph 27.6 mph N/A   Overcast
7:53 AM 17.6 °F 0.1 °F 8.6 °F 68% 30.08 in 10.0 mi SW 23.0 mph 28.8 mph N/A   Overcast
8:15 AM 17.6 °F 2.2 °F 8.6 °F 68% 30.08 in 10.0 mi SW 17.3 mph 29.9 mph N/A   Overcast
8:30 AM 19.4 °F 4.5 °F 8.6 °F 63% 30.08 in 10.0 mi SW 17.3 mph 28.8 mph N/A   Scattered Clouds
8:55 AM 21.2 °F 4.9 °F 8.6 °F 58% 30.08 in 10.0 mi SW 23.0 mph 28.8 mph N/A   Clear
9:09 AM 21.2 °F 7.8 °F 8.6 °F 58% 30.08 in 10.0 mi SW 15.0 mph 32.2 mph N/A   Clear
9:33 AM 21.2 °F 6.4 °F 10.4 °F 63% 30.08 in 10.0 mi SW 18.4 mph 26.5 mph N/A   Clear
9:46 AM 23.0 °F 8.3 °F 10.4 °F 59% 30.08 in 10.0 mi SW 19.6 mph 28.8 mph N/A   Clear
10:10 AM 23.0 °F 8.7 °F 10.4 °F 59% 30.08 in 10.0 mi SW 18.4 mph 31.1 mph N/A   Clear
10:35 AM 23.0 °F 8.7 °F 10.4 °F 59% 30.09 in 10.0 mi SW 18.4 mph 31.1 mph N/A   Mostly Cloudy
10:49 AM 24.8 °F 11.1 °F 10.4 °F 54% 30.09 in 10.0 mi SSW 18.4 mph 28.8 mph N/A   Overcast
11:28 AM 26.6 °F 14.3 °F 10.4 °F 51% 30.09 in 10.0 mi SW 16.1 mph 33.4 mph N/A   Overcast
12:13 PM 26.6 °F 12.0 °F 12.2 °F 55% 30.08 in 10.0 mi SW 23.0 mph 31.1 mph N/A   Scattered Clouds
12:35 PM 26.6 °F 10.8 °F 12.2 °F 55% 30.07 in 10.0 mi SW 27.6 mph 41.4 mph N/A   Scattered Clouds
12:53 PM 28.4 °F 13.8 °F 12.2 °F 51% 30.07 in 10.0 mi SW 25.3 mph 40.3 mph N/A   Overcast
1:12 PM 26.6 °F 10.8 °F 12.2 °F 55% 30.07 in 10.0 mi SW 27.6 mph 35.7 mph N/A   Overcast
1:33 PM 26.6 °F 11.1 °F 10.4 °F 51% 30.07 in 10.0 mi SW 26.5 mph 43.7 mph N/A   Overcast
1:36 PM 26.6 °F 11.7 °F 10.4 °F 51% 30.07 in 10.0 mi SW 24.2 mph 43.7 mph N/A   Overcast
2:09 PM 26.6 °F 11.4 °F 10.4 °F 51% 30.07 in 10.0 mi SSW 25.3 mph 40.3 mph N/A   Overcast
3:07 PM 26.6 °F 11.1 °F 10.4 °F 51% 30.06 in 10.0 mi SW 26.5 mph 46.0 mph N/A   Overcast
3:32 PM 26.6 °F 11.1 °F 10.4 °F 51% 30.07 in 10.0 mi WSW 26.5 mph 43.7 mph N/A   Overcast
3:47 PM 26.6 °F 12.0 °F 10.4 °F 51% 30.07 in 10.0 mi SW 23.0 mph 40.3 mph N/A   Overcast
4:03 PM 26.6 °F 9.6 °F 10.4 °F 51% 30.07 in 10.0 mi SW 33.4 mph 43.7 mph N/A   Overcast
4:17 PM 28.4 °F 15.1 °F 12.2 °F 51% 30.08 in 10.0 mi SW 20.7 mph 34.5 mph N/A   Overcast
5:08 PM 26.6 °F 12.7 °F 12.2 °F 55% 30.09 in 10.0 mi SSW 20.7 mph 39.1 mph N/A   Overcast
5:31 PM 26.6 °F 12.0 °F 12.2 °F 55% 30.10 in 10.0 mi SW 23.0 mph 35.7 mph N/A   Overcast
5:44 PM 24.8 °F 10.0 °F 12.2 °F 59% 30.10 in 10.0 mi WSW 21.9 mph 38.0 mph N/A   Overcast
6:15 PM 26.6 °F 10.6 °F 14.0 °F 59% 30.11 in 10.0 mi SW 28.8 mph 35.7 mph N/A   Overcast
6:18 PM 26.6 °F 10.6 °F 14.0 °F 59% 30.11 in 10.0 mi SW 28.8 mph 35.7 mph N/A   Overcast
6:51 PM 23.0 °F 11.1 °F 15.8 °F 74% 30.14 in 10.0 mi SW 12.7 mph 23.0 mph N/A   Mostly Cloudy
7:13 PM 23.0 °F 9.6 °F 15.8 °F 74% 30.14 in 10.0 mi SW 16.1 mph 20.7 mph N/A   Overcast
7:35 PM 23.0 °F 8.0 °F 17.6 °F 80% 30.15 in 10.0 mi SW 20.7 mph 24.2 mph N/A   Overcast
7:43 PM 23.0 °F 10.6 °F 17.6 °F 80% 30.15 in 10.0 mi SW 13.8 mph 24.2 mph N/A   Overcast
8:01 PM 21.2 °F 8.9 °F 17.6 °F 86% 30.17 in 10.0 mi SW 12.7 mph 18.4 mph N/A   Overcast
8:34 PM 21.2 °F 7.8 °F 17.6 °F 86% 30.18 in 10.0 mi SW 15.0 mph 21.9 mph N/A Snow Light Snow
8:51 PM 21.2 °F 10.1 °F 17.6 °F 86% 30.19 in 10.0 mi SW 10.4 mph 17.3 mph N/A   Overcast
9:15 PM 21.2 °F 8.9 °F 19.4 °F 93% 30.19 in 10.0 mi SW 12.7 mph - N/A   Mostly Cloudy
9:27 PM 19.4 °F 5.5 °F 17.6 °F 93% 30.19 in 10.0 mi SW 15.0 mph 18.4 mph N/A   Mostly Cloudy
9:47 PM 19.4 °F 7.9 °F 17.6 °F 93% 30.20 in 10.0 mi SW 10.4 mph - N/A   Scattered Clouds
10:09 PM 19.4 °F 7.9 °F 17.6 °F 93% 30.20 in 10.0 mi SW 10.4 mph - N/A   Clear
10:17 PM 19.4 °F 6.6 °F 17.6 °F 93% 30.21 in 10.0 mi SW 12.7 mph - N/A   Clear
10:54 PM 17.6 °F 4.3 °F 17.6 °F 100% 30.21 in 10.0 mi SW 12.7 mph - N/A   Clear
11:09 PM 17.6 °F 3.7 °F 17.6 °F 100% 30.22 in 10.0 mi SW 13.8 mph - N/A   Clear
11:29 PM 19.4 °F 5.0 °F 17.6 °F 93% 30.22 in 10.0 mi SW 16.1 mph - N/A   Mostly Cloudy